STARLINK-32491, 62043

Orbit data source: Space-Track

STARLINK-32491, 62043 is a payload satellite owned by SpaceX/Seattle (US) in LEO that was launched on Thu, 21 Nov 2024 UTC via an FALCON 9 launch vehicle from the Air Force Eastern Test Range (AFETR). Payloads include a variety of satellites, spacecraft, and rockets equipped with specific instruments for various scientific and technological missions. These include communications satellites like Starlink; space stations such as the ISS; scientific satellites like the Hubble; Earth observation satellites from companies like Planet Labs, Umbra, and HawkEye 360; GPS; miniature CubeSats for education and research; and military/defense satellites.

Loading next visibility...
STARLINK-32491 details
Identifier
62043, 2024-216M
Orbit
LEO
Last TLE update11 hours ago
Origin
Flag of USSpaceX/Seattle (US)
ManufacturerSpaceX/Seattle
MissionOperational spacecraft
Bus & MotorSTARLINK V2M, Unknown motor
Mass730 kg wet, ~700 kg dry
Launch date (UTC)
2024-11-21 (3 weeks ago)
Launch vehicle
FALCON 9
Launch site
Air Force Eastern Test Range (AFETR)
Object type
Payload
Rocket body
Debris
Shape & HBRUnknown
Radar Cross SectionLarge (>1 m²)

Expand to show TLE details & history

TLE from 11 hours ago
0 STARLINK-32491
1 62043U 24216M   24348.50002315 -.00008277  00000-0 -13538-3 0  9996
2 62043  42.9996 307.3730 0001140 278.9165 192.4156 15.50588419  4427
Epoch: 2024-12-13T12:00Z
Definitive object data (Epoch: 2024-12-13T12:00:02Z)
Latitude39.59064°
Longitude162.82515°
Altitude418.129 km
Speed7.666 km/s
True Right ascension04h 21m 59s
True Declination39° 24' 48"
Sunlit
Object was in full shadow at TLE epoch
Visualization TLE readout
Latitude41.68568°
Longitude150.3272°
Altitude418.615 km
Speed7.665 km/s
Apparent Right ascension06h 21m 38s
Apparent Declination3° 22' 15"
Sunlit
Object is in full shadow
Visualization observer readout
Local Sidereal Time21:19:17
Azimuth54.263° ENE
Elevation-30.611°
Doppler factor1
Orbital elements
Apogee altitude417.746 km
Perigee altitude416.197 km
Semi-major axis6,795.109 km
Eccentricity0.000114
Inclination42.9996°
RAAN307.373°
Arg. of periapsis278.9165°
True anomaly192.41279°
Mean anomaly192.4156°
Eccentric anomaly192.4142°
Mean motion3.87479 °/min
BSTAR-0.00013538
Orbital period92.91 mins
Loading maneuver chart data...
Loading historical data...
Loading historical data...
Loading historical data...
Loading historical data...
Loading historical data...
Loading historical data...
Loading historical data...

STARLINK-32491 Visibility forecast

Observer location: undefined°, undefined

Span
Click to sort rows by Start time (UTC) header in descending order
Start Az.
Max El. time (UTC)
Max El. Az.
Max El.
End time (UTC)
End Az.
5 mins2024-12-14 01:41:19.648Z242.581° WSW2024-12-14 01:43:19.648Z200.285° SSW43.473°2024-12-14 01:46:19.648Z74.276° E
4 mins2024-12-14 03:19:19.648Z290.975° WNW2024-12-14 03:21:19.648Z13.152° NNE36.236°2024-12-14 03:23:19.648Z66.75° ENE
4 mins2024-12-14 04:57:19.648Z298.778° NW2024-12-14 04:58:19.648Z327.081° NNW40.738°2024-12-14 05:01:19.648Z96.216° ESE
4 mins2024-12-14 06:34:19.648Z258.874° W2024-12-14 06:36:19.648Z197.831° SSW26.586°2024-12-14 06:38:19.648Z152.541° SSE
|